[ ตารางข้อมูล ] [ Min-Max ] [ วันนี้2 ] [ วันนี้4 ] [ เทียบ-A 3วัน ] [ เทียบ-B 4วัน ]   

วันนี้2   [ ◀ ช่วงเก่ากว่า ] [ ช่วงที่ 43 ] [ ช่วงใหม่กว่า ▶ ] [ ล่าสุด ]    [ 3 ชั่วโมง ] [ 6 ชั่วโมง ] [ 12 ชั่วโมง ] [ 24 ชั่วโมง ]   วันนี้2

อุณภูมิในตู้ Knockdown4529  ราย 6 ชั่วโมง  ที่วัดได้ ในช่วงวันเวลา 22/08/2026 (03:58) ถึง 22/08/2026 (09:58) 
ความชื้นในตู้ Knockdown4529  ราย 6 ชั่วโมง  ที่วัดได้ ในช่วงวันเวลา 22/08/2026 (03:58) ถึง 22/08/2026 (09:58) 
การใช้ไฟฟ้าในตู้ Knockdown4529  ราย 6 ชั่วโมง  ที่วัดได้ ในช่วงวันเวลา 22/08/2026 (03:58) ถึง 22/08/2026 (09:58) 

  DS18B20SHTC3PZEM-004TWiFi 
IDDate d/m/Y & Timedata1
สูง
data2
ต่ำ
data3
นอก
temp
pcb
hum
pcb
VoltAmpWattrssiTime
 14923  22/08/2026 09:54:30  32.1  30.6  32.6  33.0  63.0  228.6  0.04  4.6  -77  09:54 
 14922  22/08/2026 09:49:47  32.1  30.6  32.4  33.0  63.1  227.0  0.04  4.6  -75  09:49 
 14921  22/08/2026 09:45:04  32.0  30.6  32.5  32.7  63.1  226.4  0.04  4.6  -76  09:45 
 14920  22/08/2026 09:40:21  31.9  30.4  32.2  32.8  63.1  223.9  0.04  4.6  -75  09:40 
 14919  22/08/2026 09:35:37  31.9  30.4  32.1  32.6  63.2  226.3  0.04  4.6  -74  09:35 
 14918  22/08/2026 09:30:54  31.8  30.3  32.4  32.6  63.3  227.7  0.04  4.6  -75  09:30 
 14917  22/08/2026 09:26:11  31.6  30.2  32.4  32.5  63.6  229.9  0.04  4.6  -76  09:26 
 14916  22/08/2026 09:21:28  31.4  30.2  31.9  32.4  63.7  230.9  0.04  4.6  -78  09:21 
 14915  22/08/2026 09:16:44  31.4  30.1  31.9  32.2  63.9  231.3  0.04  4.6  -79  09:16 
 14914  22/08/2026 09:12:01  31.2  30.1  31.6  32.1  64.2  230.2  0.04  4.6  -77  09:12 
 14913  22/08/2026 09:07:17  31.1  30.0  31.5  32.0  64.3  230.4  0.04  4.6  -78  09:07 
 14912  22/08/2026 09:02:34  31.0  29.9  31.3  32.0  64.6  231.0  0.04  4.6  -75  09:02 
 14911  22/08/2026 08:57:51  30.9  29.9  31.3  31.9  64.7  231.1  0.04  4.6  -75  08:57 
 14910  22/08/2026 08:53:07  30.8  29.8  31.1  31.6  64.8  230.2  0.04  4.6  -76  08:53 
 14909  22/08/2026 08:48:23  30.6  29.8  31.2  31.6  64.9  230.7  0.04  4.6  -76  08:48 
 14908  22/08/2026 08:43:40  30.5  29.8  31.4  31.5  65.0  230.6  0.04  4.6  -75  08:43 
 14907  22/08/2026 08:38:57  30.4  29.7  31.0  31.3  65.3  231.0  0.04  4.6  -77  08:38 
 14906  22/08/2026 08:34:13  30.2  29.6  30.5  31.2  65.4  231.2  0.04  4.6  -74  08:34 
 14905  22/08/2026 08:29:30  30.1  29.6  30.4  31.1  65.6  229.6  0.04  4.6  -76  08:29 
 14904  22/08/2026 08:24:46  30.0  29.6  30.1  31.0  65.9  229.4  0.04  4.6  -75  08:24 
 14903  22/08/2026 08:20:03  29.9  29.6  30.0  30.9  66.1  229.8  0.04  4.6  -75  08:20 
 14902  22/08/2026 08:15:20  29.8  29.6  30.0  30.7  66.3  230.0  0.04  4.6  -77  08:15 
 14901  22/08/2026 08:10:36  29.6  29.5  29.7  30.7  66.5  230.2  0.04  4.6  -78  08:10 
 14900  22/08/2026 08:05:53  29.6  29.5  29.4  30.5  66.7  229.1  0.04  4.6  -78  08:05 

Data every 5 minute.


ใช้เวลาประมวลผล 0.03722 วินาที